星链-36216(STARLINK-36216)

导读 | 豆包AI

STARLINK-36216是美国太空探索技术公司Starlink星链互联网卫星星座的一员,于2025年12月17日由美国发射升空。该卫星隶属于星链项目,旨在为全球提供高速低延迟互联网接入服务,尤其覆盖偏远地区及网络基础设施薄弱区域,进一步扩充了星链星座的组网规模与服务覆盖能力。

基本信息
目录编号:
67217
目录名称:
STARLINK-36216
国际标识:
2025-304AB
轨道中心:
EARTH
卫星名称:
星链-36216
卫星全名:
星链-36216(STARLINK-36216)
卫星状态:
在轨 (已飞行87 天)
发射日期:
2025-12-17 UTC
国别 :
美国 (US)
星等 :
--
轨道信息
数据来源 国际轨道数据
星历时间: 2026-03-13T15:01:32+0800
20小时前
查看轨道信息
半长轴: 6950.149km
偏心率: 0.0003986
轨道倾角: 70.002°
近地点辐角 264.949°
升交点赤经 165.395°
平近点角 95.122°
近地点: 569.241km
远地点: 574.783km
周期: 96.106分钟
每日圈数: 14.983444
详细信息
固有亮度:
5
最大亮度:
2.5
卫星平台:
Starlink V1.0
覆盖范围:
全球
运营商:
太空探索技术公司
运营商所在国:
美国
制造商(研发单位):
太空探索技术公司
制造商所在国:
美国
使用方式:
暂无
卫星简介
Starlink 计划是 SpaceX 推出的全球卫星互联网项目,通过发射低轨道卫星,为全球尤其是偏远地区提供高速、低延迟的互联网服务。自 2019 年起,Starlink 已部署数千颗卫星,旨在缩小全球数字鸿沟,推动互联网普及。该项目还为军事、航空等行业提供通信支持,带来广泛经济效益。
2D轨道图
3D轨道图
轨道高度分析图
轨道倾角分析图
轨道综合分析图
查看轨道综合分析图